Accueil
METAR-TAF:

METAR-TAF

Aéroports :

Aéroport de Lannion-Côte de Granit

Lannion, France

latitude: 48-45N, longitude: 003-28W, altitude: 89 m

Observation

Le bulletin a été fait il y a 4 heures et 30 minutes, à 21:00 UTC
Vent 8 kt de est/nord-est, variant entre nord et est
Température 7°C
Humidité 81%
Pression 1020 hPa
Visibilité 10 km ou plus

METAR: LFRO 022100Z AUTO 06008KT 010V100 9999 FEW020/// SCT031/// BKN039/// //////TCU 07/04 Q1020

Heure: 02:30 (01:30 UTC)


TAF: absent

Observations et prévisions météorologiques de plus de 4000 aéroports (messages METAR et TAF).

Les stations disponibles sont représentées par des disques jaunes et rouges sur la carte.

Passer la souris dessus pour voir le nom de la station.

Cliquer dessus pour voir les observations et prévisions météorologiques.

Pour changer de carte: cliquez sur les boutons verts avec une croix noire pour zoomer, sur le bouton vert avec un tiret pour effectuer un zoom arrière, ou sur les flèches vertes pour les cartes adjacentes.


METAR-TAF: